This demonstration page uses our WeatherBlox Daily Observations layout. Learn more.

Left ArrowRight Arrow

Hourly Observations for December 30, 2015

Temp ( °F °C ) Dew Point ( °F °C ) Humidity (%) Winds ( mph kmh ) Pressure ( in mb ) Visibility ( mi km ) Precip ( " mm )
12:53 am 00:53 Cloudy 38 3.3 33 0.6 83 83 NNW 5 7 30.22 1023 10 16 N/A
1:53 am 01:53 Cloudy 38 3.3 32 undefined 79 79 NNW 5 7 30.23 1024 10 16 N/A
2:53 am 02:53 Cloudy 38 3.3 32 undefined 79 79 N N/A 30.23 1024 10 16 N/A
3:53 am 03:53 Cloudy 38 3.3 32 undefined 79 79 N N/A 30.24 1024 10 16 N/A
4:53 am 04:53 Cloudy 38 3.3 33 0.6 83 83 N 3 6 30.22 1024 10 16 N/A
5:53 am 05:53 Cloudy 38 3.3 33 0.6 83 83 ENE 5 7 30.20 1023 10 16 N/A
6:53 am 06:53 Cloudy 38 3.3 33 0.6 83 83 NW 3 6 30.23 1024 10 16 N/A
7:53 am 07:53 Cloudy 38 3.3 33 0.6 83 83 N N/A 30.19 1022 10 16 N/A
8:53 am 08:53 Cloudy 39 3.9 34 1.1 82 82 N N/A 30.19 1023 10 16 N/A
9:39 am 09:39 Cloudy 39 3.9 34 1.1 82 82 WNW 5 7 30.21 1023 10 16 N/A
9:53 am 09:53 Cloudy 39 3.9 34 1.1 82 82 NW 3 6 30.22 1024 10 16 N/A
10:53 am 10:53 Cloudy 40 4.4 34 1.1 79 79 N N/A 30.22 1023 10 16 N/A
11:53 am 11:53 Cloudy 40 4.4 35 1.7 83 83 WNW 5 7 30.21 1023 10 16 N/A
12:53 pm 12:53 Cloudy 41 5 36 2.2 82 82 W 3 6 30.19 1022 10 16 N/A
1:53 pm 13:53 Cloudy 41 5 36 2.2 82 82 W 6 9 30.16 1021 10 16 N/A
2:53 pm 14:53 Cloudy 41 5 35 1.7 79 79 W 8 13 30.16 1021 10 16 N/A
3:53 pm 15:53 Cloudy 41 5 34 1.1 76 76 W 7 11 30.18 1022 10 16 N/A
4:53 pm 16:53 Cloudy 41 5 33 0.6 73 73 W 9 15 30.20 1023 10 16 N/A
5:53 pm 17:53 Cloudy 40 4.4 32 undefined 73 73 WNW 9 15 30.22 1024 10 16 N/A
6:53 pm 18:53 Cloudy 39 3.9 32 undefined 76 76 WNW 8 13 30.25 1024 10 16 N/A
7:53 pm 19:53 Cloudy 38 3.3 32 undefined 79 79 WNW 7 11 30.26 1025 10 16 N/A
8:53 pm 20:53 Cloudy 38 3.3 30 -1.1 73 73 WNW 10 17 30.26 1025 10 16 N/A
9:53 pm 21:53 Cloudy 37 2.8 30 -1.1 76 76 NW 9 15 30.25 1025 10 16 N/A
10:53 pm 22:53 Cloudy 37 2.8 29 -1.7 73 73 WNW 9 15 30.25 1024 10 16 N/A
11:53 pm 23:53 Cloudy 36 2.2 30 -1.1 79 79 NW 8 13 30.25 1025 10 16 N/A

Powered by AerisWeather